OpenBCM V1.13 (Linux)

Packet Radio Mailbox

DB0FHN

[JN59NK Nuernberg]

 Login: GUEST





  
UA9FBV > KEPS     24.12.04 08:33l 151 Lines 3945 Bytes #999 (0) @ AMSAT
BID : ORB04358.O
Read: GUEST
Subj: Orbital Elements  04358.OSCAR
Path: DB0FHN<DB0CL<DB0PDF<DB0SM<DB0EA<DB0RES<ER3KAZ<UA9FBV
Sent: 041224/0626Z @:UA9FBV.PRM.RUS.AS #:13743 [Perm] GATEWAY $:ORB04358.O
From: UA9FBV@UA9FBV.PRM.RUS.AS
To  : KEPS@AMSAT


HR AMSAT ORBITAL ELEMENTS FOR OSCAR SATELLITES
FROM WA5QGD FORT WORTH,TX December 23, 2004
SEND SUBSCRIBE/UNSUBSCRIBE TO majordomo@amsat.org ONLY
BID: ORB04358.O
TO ALL RADIO AMATEURS BT

Satellite: AO-07
Catalog number: 07530
Epoch time:      04357.69996212
Element set:     363
Inclination:      101.6541 deg
RA of node:        41.2926 deg
Eccentricity:    0.0012194
Arg of perigee:   215.7506 deg
Mean anomaly:     144.2750 deg
Mean motion:   12.53570019 rev/day
Decay rate:       -2.8e-07 rev/day^2
Epoch rev:           37753
Checksum:              285

Satellite: AO-10
Catalog number: 14129
Epoch time:      04357.52009690
Element set:    0133
Inclination:      026.9049 deg
RA of node:       055.4239 deg
Eccentricity:    0.6032910
Arg of perigee:   150.8982 deg
Mean anomaly:     263.3325 deg
Mean motion:   02.05868630 rev/day
Decay rate:       -3.2e-07 rev/day^2
Epoch rev:           16189
Checksum:              291

Satellite: UO-11
Catalog number: 14781
Epoch time:      04357.85713526
Element set:     667
Inclination:       98.1913 deg
RA of node:       345.9904 deg
Eccentricity:    0.0008842
Arg of perigee:   199.4847 deg
Mean anomaly:     160.6004 deg
Mean motion:   14.79108503 rev/day
Decay rate:        2.1e-07 rev/day^2
Epoch rev:           11573
Checksum:              313

Satellite: RS-10/11
Catalog number: 18129
Epoch time:      04358.07412683
Element set:     570
Inclination:       82.9249 deg
RA of node:         8.4064 deg
Eccentricity:    0.0012436
Arg of perigee:   148.8859 deg
Mean anomaly:     211.3042 deg
Mean motion:   13.72750579 rev/day
Decay rate:        1.4e-07 rev/day^2
Epoch rev:           87691
Checksum:              308

Satellite: FO-20
Catalog number: 20480
Epoch time:      04357.65115097
Element set:     775
Inclination:       99.0167 deg
RA of node:       199.4379 deg
Eccentricity:    0.0539813
Arg of perigee:   279.8584 deg
Mean anomaly:      74.2015 deg
Mean motion:   12.83343658 rev/day
Decay rate:       -5.8e-07 rev/day^2
Epoch rev:           69685
Checksum:              355

Satellite: RS-12/13
Catalog number: 21089
Epoch time:      04358.21788559
Element set:     794
Inclination:       82.9242 deg
RA of node:        41.4857 deg
Eccentricity:    0.0028615
Arg of perigee:   206.4760 deg
Mean anomaly:     153.4918 deg
Mean motion:   13.74445132 rev/day
Decay rate:        1.9e-07 rev/day^2
Epoch rev:           69632
Checksum:              327

Satellite: RS-15
Catalog number: 23439
Epoch time:      04357.55331060
Element set:    0840
Inclination:      064.8212 deg
RA of node:       033.2125 deg
Eccentricity:    0.0158794
Arg of perigee:   347.4080 deg
Mean anomaly:     012.2899 deg
Mean motion:   11.27550506 rev/day
Decay rate:       -3.9e-07 rev/day^2
Epoch rev:           41147
Checksum:              284

Satellite: FO-29
Catalog number: 24278
Epoch time:      04358.27138909
Element set:     854
Inclination:       98.5735 deg
RA of node:        65.3810 deg
Eccentricity:    0.0349674
Arg of perigee:   272.0310 deg
Mean anomaly:      84.0818 deg
Mean motion:   13.52906143 rev/day
Decay rate:       -6.1e-07 rev/day^2
Epoch rev:           41240
Checksum:              311

Satellite: SO-33
Catalog number: 25509
Epoch time:      04357.31255886
Element set:    0263
Inclination:      031.4301 deg
RA of node:       312.3081 deg
Eccentricity:    0.0355193
Arg of perigee:   060.1479 deg
Mean anomaly:     303.3958 deg
Mean motion:   14.27945255 rev/day
Decay rate:       3.67e-06 rev/day^2
Epoch rev:           32152
Checksum:              292

Satellite: AO-40
Catalog number: 26609
Epoch time:      04358.15860515
Element set:     474
Inclination:        9.0368 deg
RA of node:       328.9528 deg
Eccentricity:    0.7959080
Arg of perigee:   350.4630 deg
Mean anomaly:       0.3286 deg
Mean motion:    1.25585970 rev/day
Decay rate:      -1.91e-06 rev/day^2
Epoch rev:            1904
Checksum:              312



Read previous mail | Read next mail


 15.09.2026 11:20:49lGo back Go up